| time (UTC) | temp F | wind direction | speed knots | gust knots | rain 1hr in | rain 24hr in | rain mn in | humidity % | barometer mb |
| 20260505064103 | 56 | 198 | 17.4 | 17.4 | 0.00 | 0.00 | 0.00 | 95 | 1011.8 |
| 20260505063559 | 55 | 218 | 12.2 | 20.9 | 0.00 | 0.00 | 0.00 | 96 | 1011.8 |
| 20260505063055 | 55 | 194 | 9.6 | 15.6 | 0.00 | 0.00 | 0.00 | 96 | 1012.0 |
| 20260505062552 | 55 | 202 | 11.3 | 13.0 | 0.00 | 0.00 | 0.00 | 96 | 1011.9 |
| 20260505062049 | 55 | 196 | 13.0 | 14.8 | 0.00 | 0.00 | 0.00 | 96 | 1012.0 |
| 20260505061546 | 55 | 186 | 4.3 | 15.6 | 0.00 | 0.00 | 0.00 | 96 | 1011.9 |
| 20260505061044 | 55 | 207 | 10.4 | 13.9 | 0.00 | 0.00 | 0.00 | 96 | 1012.1 |
| 20260505060541 | 55 | 199 | 7.0 | 15.6 | 0.00 | 0.00 | 0.00 | 96 | 1012.0 |
| 20260505060038 | 55 | 212 | 8.7 | 16.5 | 0.00 | 0.00 | 0.00 | 96 | 1012.1 |
| 20260505055533 | 55 | 201 | 8.7 | 13.0 | 0.00 | 0.00 | 0.00 | 96 | 1012.2 |
| 20260505055030 | 55 | 195 | 6.1 | 13.9 | 0.00 | 0.00 | 0.00 | 96 | 1012.1 |
| 20260505054527 | 55 | 191 | 7.0 | 12.2 | 0.00 | 0.00 | 0.00 | 96 | 1012.2 |
| 20260505054026 | 55 | 186 | 12.2 | 14.8 | 0.00 | 0.00 | 0.00 | 95 | 1012.4 |
| 20260505053522 | 55 | 194 | 7.8 | 13.0 | 0.00 | 0.00 | 0.00 | 95 | 1012.4 |
| 20260505053019 | 55 | 200 | 7.0 | 13.0 | 0.00 | 0.00 | 0.00 | 95 | 1012.3 |
| 20260505052516 | 55 | 191 | 6.1 | 11.3 | 0.00 | 0.00 | 0.00 | 95 | 1012.3 |
| 20260505052014 | 55 | 191 | 7.0 | 13.9 | 0.00 | 0.00 | 0.00 | 95 | 1012.5 |
| 20260505051510 | 55 | 199 | 4.3 | 10.4 | 0.00 | 0.00 | 0.00 | 95 | 1012.6 |
| 20260505051009 | 55 | 196 | 6.1 | 11.3 | 0.00 | 0.00 | 0.00 | 94 | 1012.4 |
| 20260505050506 | 55 | 208 | 7.8 | 13.0 | 0.00 | 0.00 | 0.00 | 94 | 1012.7 |
| 20260505041434 | 55 | 198 | 4.3 | 11.3 | 0.00 | 0.00 | 0.00 | 94 | 1012.6 |
| 20260505040931 | 55 | 192 | 5.2 | 11.3 | 0.00 | 0.00 | 0.00 | 94 | 1012.7 |
| 20260505040429 | 55 | 187 | 8.7 | 10.4 | 0.00 | 0.00 | 0.00 | 94 | 1012.9 |
| 20260505035925 | 55 | 187 | 7.8 | 13.0 | 0.00 | 0.00 | 0.00 | 94 | 1012.7 |
| 20260505035421 | 55 | 170 | 3.5 | 12.2 | 0.00 | 0.00 | 0.00 | 94 | 1012.8 |
| 20260505034919 | 55 | 191 | 9.6 | 11.3 | 0.00 | 0.00 | 0.00 | 94 | 1012.7 |
| 20260505034415 | 55 | 192 | 7.8 | 12.2 | 0.00 | 0.00 | 0.00 | 94 | 1012.9 |
| 20260505033912 | 55 | 187 | 6.1 | 12.2 | 0.00 | 0.00 | 0.00 | 94 | 1012.7 |
| 20260505033409 | 55 | 205 | 3.5 | 11.3 | 0.00 | 0.00 | 0.00 | 94 | 1012.8 |
| 20260505032907 | 55 | 167 | 4.3 | 11.3 | 0.00 | 0.00 | 0.00 | 94 | 1012.7 |
| 20260505032403 | 55 | 195 | 5.2 | 13.0 | 0.00 | 0.00 | 0.00 | 94 | 1012.7 |
| 20260505031900 | 55 | 192 | 7.8 | 12.2 | 0.00 | 0.00 | 0.00 | 94 | 1012.9 |
| 20260505031357 | 55 | 206 | 5.2 | 10.4 | 0.00 | 0.00 | 0.00 | 94 | 1012.8 |
| 20260505030854 | 55 | 181 | 7.0 | 10.4 | 0.00 | 0.00 | 0.00 | 94 | 1012.9 |
| 20260505030350 | 55 | 220 | 5.2 | 13.0 | 0.00 | 0.00 | 0.00 | 94 | 1012.7 |
| 20260505025845 | 55 | 205 | 6.1 | 14.8 | 0.00 | 0.00 | 0.00 | 94 | 1012.8 |
| 20260505025343 | 55 | 215 | 6.1 | 12.2 | 0.00 | 0.00 | 0.00 | 94 | 1012.9 |
| 20260505024842 | 55 | 193 | 5.2 | 11.3 | 0.00 | 0.00 | 0.00 | 94 | 1012.8 |
| 20260505024339 | 55 | 193 | 6.1 | 11.3 | 0.00 | 0.00 | 0.00 | 94 | 1013.1 |
| 20260505023836 | 55 | 207 | 7.8 | 13.0 | 0.00 | 0.00 | 0.00 | 94 | 1013.0 |
| 20260505023333 | 55 | 204 | 5.2 | 11.3 | 0.00 | 0.00 | 0.00 | 94 | 1012.9 |
| 20260505022830 | 55 | 180 | 5.2 | 12.2 | 0.00 | 0.00 | 0.00 | 94 | 1013.0 |
| 20260505022327 | 55 | 222 | 11.3 | 12.2 | 0.00 | 0.00 | 0.00 | 94 | 1013.1 |
| 20260505021825 | 55 | 181 | 4.3 | 11.3 | 0.00 | 0.00 | 0.00 | 94 | 1013.0 |
| 20260505021321 | 55 | 193 | 7.0 | 12.2 | 0.00 | 0.00 | 0.00 | 94 | 1013.2 |
| 20260505020817 | 55 | 208 | 8.7 | 11.3 | 0.00 | 0.00 | 0.00 | 94 | 1013.0 |
| 20260505020313 | 55 | 189 | 3.5 | 13.9 | 0.00 | 0.00 | 0.00 | 94 | 1013.0 |
| 20260505015810 | 55 | 190 | 4.3 | 11.3 | 0.00 | 0.00 | 0.00 | 94 | 1013.0 |
| 20260505015307 | 55 | 184 | 9.6 | 12.2 | 0.00 | 0.00 | 0.00 | 93 | 1012.9 |
| 20260505014804 | 55 | 209 | 4.3 | 13.9 | 0.00 | 0.00 | 0.00 | 93 | 1013.0 |
| 20260505014301 | 55 | 187 | 8.7 | 16.5 | 0.00 | 0.00 | 0.00 | 93 | 1013.1 |
| 20260505013757 | 55 | 201 | 10.4 | 12.2 | 0.00 | 0.00 | 0.00 | 92 | 1013.0 |
| 20260505013255 | 55 | 184 | 4.3 | 13.0 | 0.00 | 0.00 | 0.00 | 91 | 1012.9 |
| 20260505012753 | 56 | 200 | 8.7 | 13.0 | 0.00 | 0.00 | 0.00 | 91 | 1012.8 |
| 20260505012250 | 56 | 180 | 9.6 | 16.5 | 0.00 | 0.00 | 0.00 | 91 | 1012.9 |
| 20260505011745 | 56 | 177 | 4.3 | 15.6 | 0.00 | 0.00 | 0.00 | 90 | 1012.9 |
| 20260505011243 | 56 | 197 | 9.6 | 17.4 | 0.00 | 0.00 | 0.00 | 89 | 1012.8 |
| 20260505010738 | 56 | 205 | 11.3 | 17.4 | 0.00 | 0.00 | 0.00 | 89 | 1012.6 |
| 20260505010235 | 57 | 196 | 11.3 | 13.9 | 0.00 | 0.00 | 0.00 | 88 | 1012.5 |
| 20260505005731 | 57 | 185 | 9.6 | 16.5 | 0.00 | 0.00 | 0.00 | 88 | 1012.7 |
| 20260505005228 | 57 | 208 | 7.8 | 15.6 | 0.00 | 0.00 | 0.00 | 88 | 1012.5 |
| 20260505004725 | 57 | 196 | 7.8 | 16.5 | 0.00 | 0.00 | 0.00 | 87 | 1012.5 |
| 20260505004222 | 57 | 193 | 10.4 | 17.4 | 0.00 | 0.00 | 0.00 | 86 | 1012.7 |
| 20260505003719 | 57 | 168 | 9.6 | 19.1 | 0.00 | 0.00 | 0.00 | 85 | 1012.4 |
| 20260505003217 | 58 | 233 | 5.2 | 27.8 | 0.00 | 0.00 | 0.00 | 85 | 1012.4 |
| 20260505002713 | 58 | 212 | 10.4 | 19.1 | 0.00 | 0.00 | 0.00 | 85 | 1012.3 |
| 20260505002211 | 57 | 209 | 14.8 | 20.0 | 0.00 | 0.00 | 0.00 | 86 | 1012.1 |
| 20260505001708 | 57 | 203 | 9.6 | 20.0 | 0.00 | 0.00 | 0.00 | 87 | 1012.2 |
| 20260505001205 | 57 | 202 | 11.3 | 15.6 | 0.00 | 0.00 | 0.00 | 88 | 1012.2 |
| 20260505000702 | 57 | 205 | 11.3 | 13.9 | 0.00 | 0.00 | 0.00 | 89 | 1011.8 |
| 20260505000200 | 56 | 233 | 5.2 | 20.9 | 0.00 | 0.00 | 0.00 | 89 | 1012.0 |
| 20260504235656 | 56 | 199 | 16.5 | 16.5 | 0.00 | 0.00 | 0.00 | 90 | 1011.9 |
| 20260504235152 | 56 | 203 | 5.2 | 13.0 | 0.00 | 0.00 | 0.00 | 90 | 1012.1 |
| 20260504234650 | 56 | 204 | 6.1 | 9.6 | 0.00 | 0.00 | 0.00 | 91 | 1012.1 |
| 20260504234147 | 56 | 167 | 3.5 | 9.6 | 0.00 | 0.00 | 0.00 | 91 | 1012.1 |
| 20260504233643 | 56 | 207 | 7.8 | 11.3 | 0.00 | 0.00 | 0.00 | 91 | 1012.0 |
| 20260504233139 | 56 | 215 | 7.8 | 11.3 | 0.00 | 0.00 | 0.00 | 90 | 1012.2 |
| 20260504232637 | 56 | 223 | 4.3 | 9.6 | 0.00 | 0.00 | 0.00 | 90 | 1012.1 |
| 20260504232133 | 56 | 226 | 5.2 | 13.0 | 0.00 | 0.00 | 0.00 | 90 | 1012.1 |
| 20260504231630 | 56 | 188 | 4.3 | 11.3 | 0.00 | 0.00 | 0.00 | 90 | 1011.9 |
| 20260504231127 | 56 | 190 | 4.3 | 9.6 | 0.00 | 0.00 | 0.00 | 90 | 1011.8 |
| 20260504230623 | 56 | 202 | 4.3 | 9.6 | 0.00 | 0.00 | 0.00 | 89 | 1012.1 |
| 20260504230122 | 56 | 189 | 6.1 | 13.0 | 0.00 | 0.00 | 0.00 | 89 | 1012.2 |
| 20260504225619 | 56 | 195 | 10.4 | 11.3 | 0.00 | 0.00 | 0.00 | 90 | 1012.4 |
| 20260504225115 | 56 | 174 | 3.5 | 10.4 | 0.00 | 0.00 | 0.00 | 90 | 1012.2 |
| 20260504224612 | 56 | 116 | 1.7 | 7.0 | 0.00 | 0.00 | 0.00 | 89 | 1012.3 |
| 20260504224109 | 56 | 211 | 3.5 | 8.7 | 0.00 | 0.00 | 0.00 | 89 | 1012.3 |
| 20260504223606 | 56 | 175 | 3.5 | 8.7 | 0.00 | 0.00 | 0.00 | 89 | 1012.1 |
| 20260504223102 | 56 | 172 | 7.0 | 7.0 | 0.00 | 0.00 | 0.00 | 89 | 1012.1 |
| 20260504222559 | 56 | 197 | 3.5 | 7.8 | 0.00 | 0.00 | 0.00 | 89 | 1012.1 |
| 20260504222056 | 56 | 159 | 3.5 | 9.6 | 0.00 | 0.00 | 0.00 | 89 | 1012.1 |
| 20260504221553 | 57 | 131 | 3.5 | 11.3 | 0.00 | 0.00 | 0.00 | 88 | 1012.1 |
| 20260504221050 | 57 | 116 | 3.5 | 9.6 | 0.00 | 0.00 | 0.00 | 89 | 1012.0 |
| 20260504220547 | 57 | 186 | 3.5 | 9.6 | 0.00 | 0.00 | 0.00 | 88 | 1012.0 |
| 20260504220044 | 57 | 201 | 5.2 | 10.4 | 0.00 | 0.00 | 0.00 | 88 | 1012.0 |
| 20260504215540 | 57 | 192 | 7.8 | 12.2 | 0.00 | 0.00 | 0.00 | 88 | 1011.8 |
| 20260504215038 | 57 | 144 | 4.3 | 11.3 | 0.00 | 0.00 | 0.00 | 88 | 1012.0 |
| 20260504214533 | 57 | 185 | 4.3 | 8.7 | 0.00 | 0.00 | 0.00 | 88 | 1012.0 |
| 20260504214030 | 57 | 209 | 8.7 | 8.7 | 0.00 | 0.00 | 0.00 | 88 | 1012.0 |
| 20260504213526 | 57 | 189 | 7.8 | 10.4 | 0.00 | 0.00 | 0.00 | 88 | 1012.1 |
| 20260504213024 | 57 | 176 | 6.1 | 13.0 | 0.00 | 0.00 | 0.00 | 88 | 1012.1 |
| 20260504212519 | 57 | 212 | 4.3 | 12.2 | 0.00 | 0.00 | 0.00 | 87 | 1012.2 |
| 20260504212017 | 57 | 191 | 8.7 | 14.8 | 0.00 | 0.00 | 0.00 | 87 | 1012.2 |
| 20260504211514 | 57 | 188 | 4.3 | 9.6 | 0.00 | 0.00 | 0.00 | 87 | 1012.2 |
| 20260504211011 | 57 | 116 | 7.0 | 11.3 | 0.00 | 0.00 | 0.00 | 87 | 1012.2 |
| 20260504210508 | 57 | 120 | 2.6 | 12.2 | 0.00 | 0.00 | 0.00 | 87 | 1012.2 |
| 20260504210005 | 57 | 208 | 12.2 | 12.2 | 0.00 | 0.00 | 0.00 | 86 | 1012.0 |
| 20260504205502 | 57 | 156 | 4.3 | 11.3 | 0.00 | 0.00 | 0.00 | 86 | 1012.2 |
| 20260504205000 | 57 | 186 | 4.3 | 11.3 | 0.00 | 0.00 | 0.00 | 86 | 1012.2 |
| 20260504204458 | 58 | 187 | 4.3 | 11.3 | 0.00 | 0.00 | 0.00 | 85 | 1012.2 |
| 20260504203957 | 58 | 203 | 5.2 | 13.0 | 0.00 | 0.00 | 0.00 | 85 | 1012.3 |
| 20260504203455 | 57 | 173 | 4.3 | 15.6 | 0.00 | 0.00 | 0.00 | 86 | 1012.2 |
| 20260504202950 | 58 | 172 | 7.8 | 14.8 | 0.00 | 0.00 | 0.00 | 85 | 1012.3 |
| 20260504202447 | 57 | 168 | 9.6 | 14.8 | 0.00 | 0.00 | 0.00 | 85 | 1012.2 |
| 20260504201944 | 58 | 183 | 7.0 | 11.3 | 0.00 | 0.00 | 0.00 | 84 | 1012.3 |
| 20260504201441 | 58 | 159 | 9.6 | 14.8 | 0.00 | 0.00 | 0.00 | 85 | 1012.3 |
| 20260504200939 | 57 | 153 | 7.8 | 14.8 | 0.00 | 0.00 | 0.00 | 85 | 1012.2 |
| 20260504200435 | 58 | 190 | 7.0 | 11.3 | 0.00 | 0.00 | 0.00 | 85 | 1012.3 |
| 20260504195932 | 58 | 184 | 9.6 | 13.9 | 0.00 | 0.00 | 0.00 | 85 | 1012.4 |
| 20260504195428 | 57 | 155 | 6.1 | 15.6 | 0.00 | 0.00 | 0.00 | 85 | 1012.2 |
| 20260504194924 | 57 | 127 | 4.3 | 12.2 | 0.00 | 0.00 | 0.00 | 85 | 1012.4 |
| 20260504194420 | 57 | 167 | 7.8 | 13.0 | 0.00 | 0.00 | 0.00 | 85 | 1012.7 |
| 20260504193916 | 58 | 136 | 6.1 | 12.2 | 0.00 | 0.00 | 0.00 | 85 | 1012.8 |
| 20260504193414 | 57 | 129 | 7.8 | 13.0 | 0.00 | 0.00 | 0.00 | 85 | 1012.6 |
| 20260504192913 | 57 | 149 | 7.8 | 12.2 | 0.00 | 0.00 | 0.00 | 86 | 1012.7 |
| 20260504192409 | 57 | 163 | 8.7 | 13.9 | 0.00 | 0.00 | 0.00 | 85 | 1012.8 |
| 20260504191909 | 57 | 149 | 10.4 | 15.6 | 0.00 | 0.00 | 0.00 | 85 | 1012.8 |
| 20260504191406 | 57 | 127 | 7.8 | 15.6 | 0.00 | 0.00 | 0.00 | 85 | 1012.9 |
| 20260504190901 | 57 | 136 | 6.1 | 13.0 | 0.00 | 0.00 | 0.00 | 85 | 1012.8 |
| 20260504190357 | 57 | 168 | 9.6 | 16.5 | 0.00 | 0.00 | 0.00 | 84 | 1012.9 |
| 20260504185854 | 57 | 141 | 6.1 | 17.4 | 0.00 | 0.00 | 0.00 | 85 | 1013.0 |
| 20260504185351 | 57 | 147 | 9.6 | 14.8 | 0.00 | 0.00 | 0.00 | 85 | 1013.0 |
| 20260504184847 | 58 | 158 | 4.3 | 12.2 | 0.00 | 0.00 | 0.00 | 83 | 1013.2 |
| 20260504184343 | 58 | 121 | 6.1 | 13.0 | 0.00 | 0.00 | 0.00 | 82 | 1013.4 |
| 20260504183839 | 57 | 188 | 5.2 | 11.3 | 0.00 | 0.00 | 0.00 | 84 | 1013.5 |
| 20260504183337 | 58 | 174 | 6.1 | 11.3 | 0.00 | 0.00 | 0.00 | 83 | 1013.4 |
| 20260504182834 | 58 | 114 | 8.7 | 14.8 | 0.00 | 0.00 | 0.00 | 82 | 1013.3 |
| 20260504182331 | 58 | 121 | 6.1 | 12.2 | 0.00 | 0.00 | 0.00 | 83 | 1013.4 |
| 20260504181828 | 58 | 176 | 6.1 | 13.0 | 0.00 | 0.00 | 0.00 | 82 | 1013.5 |
| 20260504181325 | 58 | 150 | 14.8 | 16.5 | 0.00 | 0.00 | 0.00 | 83 | 1013.4 |
| 20260504180824 | 58 | 164 | 5.2 | 14.8 | 0.00 | 0.00 | 0.00 | 83 | 1013.6 |
| 20260504180322 | 58 | 191 | 13.9 | 15.6 | 0.00 | 0.00 | 0.00 | 82 | 1013.6 |
| 20260504175820 | 59 | 176 | 10.4 | 13.9 | 0.00 | 0.00 | 0.00 | 81 | 1013.7 |
| 20260504175317 | 59 | 173 | 6.1 | 12.2 | 0.00 | 0.00 | 0.00 | 80 | 1013.7 |
| 20260504174815 | 59 | 195 | 7.8 | 11.3 | 0.00 | 0.00 | 0.00 | 82 | 1013.8 |
| 20260504174312 | 59 | 196 | 10.4 | 12.2 | 0.00 | 0.00 | 0.00 | 80 | 1013.9 |
| 20260504173809 | 59 | 201 | 7.0 | 13.9 | 0.00 | 0.00 | 0.00 | 81 | 1014.1 |
| 20260504173305 | 59 | 197 | 5.2 | 12.2 | 0.00 | 0.00 | 0.00 | 83 | 1014.0 |
| 20260504172803 | 57 | 165 | 7.8 | 18.2 | 0.00 | 0.00 | 0.00 | 83 | 1014.0 |
| 20260504172259 | 58 | 125 | 6.1 | 12.2 | 0.00 | 0.00 | 0.00 | 82 | 1014.1 |
| 20260504171755 | 59 | 165 | 4.3 | 10.4 | 0.00 | 0.00 | 0.00 | 82 | 1014.2 |
| 20260504171252 | 58 | 166 | 3.5 | 13.0 | 0.00 | 0.00 | 0.00 | 83 | 1014.3 |
| 20260504170749 | 58 | 168 | 5.2 | 14.8 | 0.00 | 0.00 | 0.00 | 82 | 1014.4 |
| 20260504170246 | 58 | 163 | 6.1 | 13.9 | 0.00 | 0.00 | 0.00 | 83 | 1014.4 |
| 20260504160205 | 58 | 219 | 8.7 | 12.2 | 0.00 | 0.00 | 0.00 | 83 | 1014.9 |
| 20260504151133 | 57 | 205 | 8.7 | 11.3 | 0.00 | 0.00 | 0.00 | 83 | 1015.2 |
| 20260504150630 | 57 | 193 | 3.5 | 12.2 | 0.00 | 0.00 | 0.00 | 84 | 1015.3 |
| 20260504150127 | 57 | 214 | 8.7 | 14.8 | 0.00 | 0.00 | 0.00 | 83 | 1015.4 |
| 20260504141055 | 57 | 208 | 6.1 | 12.2 | 0.00 | 0.00 | 0.00 | 83 | 1015.5 |
| 20260504140552 | 57 | 205 | 5.2 | 13.0 | 0.00 | 0.00 | 0.00 | 84 | 1015.4 |
| 20260504130516 | 55 | 172 | 11.3 | 11.3 | 0.00 | 0.00 | 0.00 | 87 | 1015.8 |
| 20260504110404 | 54 | 194 | 9.6 | 12.2 | 0.00 | 0.00 | 0.00 | 77 | 1016.5 |
| 20260504100321 | 52 | 204 | 6.1 | 9.6 | 0.00 | 0.00 | 0.00 | 80 | 1016.4 |
| 20260504081714 | 53 | 229 | 6.1 | 14.8 | 0.00 | 0.00 | 0.00 | 67 | 1016.2 |
| 20260504081211 | 53 | 222 | 4.3 | 13.0 | 0.00 | 0.00 | 0.00 | 66 | 1016.3 |
| 20260504080707 | 53 | 242 | 5.2 | 13.0 | 0.00 | 0.00 | 0.00 | 65 | 1016.2 |
| 20260504080204 | 53 | 250 | 4.3 | 11.3 | 0.00 | 0.00 | 0.00 | 63 | 1016.0 |
| 20260504070131 | 53 | 210 | 3.5 | 10.4 | 0.00 | 0.00 | 0.00 | 62 | 1016.0 |